When you browse on this site, cookies collect data to enhance your experience and personalize the content and advertising you see.
Visit our Privacy Policy to learn more. By continuing to use the site, you agree to this use of cookies and data.
  • In Austria
  • List of Countries
  • For 7 days
  • Water Temperature
  • Satellite Maps
  • Weather Map
  • News
  • Weather Widgets
  • user-avatar
    Login

    Hourly Weather Konstantyna

    Today, 16 January, Wednesday

    Time Temperature Precipitation Wind Pressure Humidity
    00:00 +6°C° 0 mm 1 mps 712 mmHg 88%
    01:00 +6°C° 0 mm 1 mps 712 mmHg 88%
    02:00 +6°C° 0 mm 1 mps 711 mmHg 87%
    03:00 +6°C° 0 mm 1 mps 711 mmHg 86%
    04:00 +6°C° 0 mm 1 mps 711 mmHg 84%
    05:00 +6°C° 0 mm 1 mps 711 mmHg 82%
    06:00 +6°C° 0 mm 1 mps 712 mmHg 80%
    07:00 +6°C° 0 mm 2 mps 712 mmHg 71%
    08:00 +8°C° 0 mm 2 mps 712 mmHg 63%
    09:00 +9°C° 0 mm 2 mps 712 mmHg 54%
    10:00 +11°C° 0 mm 3 mps 712 mmHg 49%
    11:00 +12°C° 0 mm 3 mps 712 mmHg 44%
    12:00 +14°C° 0 mm 4 mps 712 mmHg 39%
    13:00 +14°C° 0 mm 4 mps 712 mmHg 40%
    14:00 +14°C° 0 mm 4 mps 711 mmHg 40%
    15:00 +14°C° 0 mm 3 mps 711 mmHg 40%
    16:00 +12°C° 0 mm 3 mps 711 mmHg 46%
    17:00 +10°C° 0 mm 2 mps 711 mmHg 52%
    18:00 +8°C° 0 mm 2 mps 710 mmHg 58%
    19:00 +7°C° 0 mm 2 mps 710 mmHg 59%
    20:00 +7°C° 0 mm 2 mps 710 mmHg 60%
    21:00 +6°C° 0 mm 2 mps 710 mmHg 61%
    22:00 +6°C° 0 mm 2 mps 710 mmHg 62%
    23:00 +6°C° 0 mm 2 mps 710 mmHg 64%

    Tomorrow, 17 January, Thursday

    Time Temperature Precipitation Wind Pressure Humidity
    00:00 +6°C° 0 mm 2 mps 710 mmHg 65%
    01:00 +6°C° 0 mm 2 mps 710 mmHg 68%
    02:00 +5°C° 0 mm 2 mps 709 mmHg 70%
    03:00 +5°C° 0 mm 2 mps 709 mmHg 73%
    04:00 +5°C° 0 mm 2 mps 709 mmHg 74%
    05:00 +5°C° 0 mm 2 mps 709 mmHg 76%
    06:00 +4°C° 0 mm 2 mps 709 mmHg 77%
    07:00 +6°C° 0 mm 2 mps 709 mmHg 72%
    08:00 +7°C° 0 mm 2 mps 709 mmHg 67%
    09:00 +8°C° 0 mm 2 mps 709 mmHg 61%
    10:00 +10°C° 0 mm 2 mps 709 mmHg 56%
    11:00 +12°C° 0 mm 2 mps 709 mmHg 51%
    12:00 +13°C° 0 mm 2 mps 709 mmHg 45%
    13:00 +13°C° 0 mm 2 mps 709 mmHg 45%
    14:00 +13°C° 0 mm 2 mps 709 mmHg 45%
    15:00 +13°C° 0 mm 2 mps 708 mmHg 45%
    16:00 +12°C° 0 mm 1 mps 708 mmHg 53%
    17:00 +10°C° 0 mm 1 mps 708 mmHg 62%
    18:00 +8°C° 0 mm 1 mps 708 mmHg 71%
    19:00 +8°C° 0 mm 1 mps 708 mmHg 74%
    20:00 +6°C° 0 mm 0 mps 708 mmHg 76%
    21:00 +6°C° 0 mm 0 mps 708 mmHg 79%
    22:00 +6°C° 0 mm 0 mps 708 mmHg 79%
    23:00 +5°C° 0 mm 0 mps 708 mmHg 79%

    Day after tomorrow, 18 January, Friday

    Time Temperature Precipitation Wind Pressure Humidity
    00:00 +6°C° 0 mm 1 mps 708 mmHg 78%
    01:00 +6°C° 0 mm 1 mps 708 mmHg 78%
    02:00 +6°C° 0 mm 1 mps 708 mmHg 77%
    03:00 +6°C° 0 mm 1 mps 707 mmHg 77%
    04:00 +6°C° 0 mm 1 mps 707 mmHg 77%
    05:00 +5°C° 0 mm 1 mps 707 mmHg 76%
    06:00 +5°C° 0 mm 1 mps 708 mmHg 76%
    07:00 +7°C° 0 mm 1 mps 708 mmHg 70%
    08:00 +9°C° 0 mm 1 mps 709 mmHg 64%
    09:00 +10°C° 0 mm 1 mps 709 mmHg 58%
    10:00 +11°C° 0 mm 1 mps 709 mmHg 54%
    11:00 +12°C° 0 mm 1 mps 709 mmHg 50%
    12:00 +13°C° 0 mm 1 mps 709 mmHg 47%
    13:00 +13°C° 0 mm 2 mps 709 mmHg 48%
    14:00 +13°C° 0 mm 2 mps 708 mmHg 50%
    15:00 +13°C° 0 mm 2 mps 708 mmHg 51%
    16:00 +10°C° 0 mm 2 mps 708 mmHg 61%
    17:00 +10°C° 0 mm 1 mps 708 mmHg 71%
    18:00 +8°C° 0 mm 1 mps 708 mmHg 81%
    19:00 +7°C° 0 mm 1 mps 709 mmHg 84%
    20:00 +7°C° 0 mm 1 mps 709 mmHg 87%
    21:00 +5°C° 0 mm 0 mps 709 mmHg 90%
    22:00 +5°C° 0 mm 0 mps 709 mmHg 90%
    23:00 +5°C° 0 mm 0 mps 709 mmHg 90%

    19 January, Saturday

    Time Temperature Precipitation Wind Pressure Humidity
    00:00 +5°C° 0 mm 0 mps 709 mmHg 91%
    01:00 +5°C° 0 mm 0 mps 709 mmHg 90%
    02:00 +4°C° 0 mm 0 mps 709 mmHg 90%
    03:00 +4°C° 0 mm 0 mps 709 mmHg 90%
    04:00 +4°C° 0 mm 0 mps 708 mmHg 90%
    05:00 +5°C° 0 mm 1 mps 708 mmHg 90%
    06:00 +5°C° 0 mm 1 mps 708 mmHg 89%
    07:00 +6°C° 0 mm 1 mps 709 mmHg 83%
    08:00 +8°C° 0 mm 1 mps 709 mmHg 78%
    09:00 +9°C° 0 mm 1 mps 710 mmHg 72%
    10:00 +10°C° 0 mm 1 mps 709 mmHg 67%
    11:00 +10°C° 0 mm 2 mps 709 mmHg 61%
    12:00 +12°C° 0 mm 2 mps 709 mmHg 56%
    13:00 +12°C° 0.1 mm 2 mps 709 mmHg 56%
    14:00 +12°C° 0.1 mm 2 mps 708 mmHg 57%
    15:00 +12°C° 0.1 mm 2 mps 708 mmHg 57%
    16:00 +10°C° 0.1 mm 2 mps 708 mmHg 65%
    17:00 +9°C° 0.1 mm 1 mps 708 mmHg 73%
    18:00 +7°C° 0.1 mm 1 mps 708 mmHg 81%
    19:00 +7°C° 0 mm 1 mps 708 mmHg 82%
    20:00 +7°C° 0 mm 1 mps 708 mmHg 84%
    21:00 +6°C° 0 mm 1 mps 708 mmHg 85%
    22:00 +6°C° 0 mm 1 mps 708 mmHg 82%
    23:00 +6°C° 0 mm 1 mps 708 mmHg 79%

    20 January, Sunday

    Time Temperature Precipitation Wind Pressure Humidity
    00:00 +5°C° 0 mm 2 mps 708 mmHg 75%
    01:00 +6°C° 0 mm 2 mps 708 mmHg 74%
    02:00 +6°C° 0 mm 2 mps 707 mmHg 72%
    03:00 +6°C° 0 mm 2 mps 707 mmHg 70%
    04:00 +6°C° 0 mm 2 mps 707 mmHg 71%
    05:00 +5°C° 0 mm 2 mps 706 mmHg 72%
    06:00 +5°C° 0 mm 2 mps 706 mmHg 73%
    07:00 +7°C° 0 mm 3 mps 706 mmHg 70%
    08:00 +8°C° 0 mm 3 mps 707 mmHg 66%
    09:00 +9°C° 0 mm 3 mps 707 mmHg 63%
    10:00 +10°C° 0.1 mm 4 mps 707 mmHg 63%
    11:00 +11°C° 0.1 mm 4 mps 706 mmHg 63%
    12:00 +12°C° 0.1 mm 5 mps 706 mmHg 63%
    13:00 +11°C° 0.3 mm 4 mps 706 mmHg 67%
    14:00 +11°C° 0.3 mm 4 mps 705 mmHg 72%
    15:00 +10°C° 0.3 mm 3 mps 705 mmHg 77%
    16:00 +9°C° 0.2 mm 3 mps 705 mmHg 79%
    17:00 +9°C° 0.2 mm 2 mps 705 mmHg 81%
    18:00 +8°C° 0.2 mm 2 mps 705 mmHg 83%
    19:00 +8°C° 0 mm 2 mps 705 mmHg 84%
    20:00 +8°C° 0 mm 2 mps 705 mmHg 85%
    21:00 +7°C° 0 mm 2 mps 706 mmHg 85%
    22:00 +7°C° 0 mm 2 mps 706 mmHg 86%
    23:00 +7°C° 0 mm 2 mps 705 mmHg 87%

    21 January, Monday

    Time Temperature Precipitation Wind Pressure Humidity
    00:00 +7°C° 0 mm 2 mps 705 mmHg 88%
    01:00 +7°C° 0.5 mm 2 mps 706 mmHg 90%
    02:00 +7°C° 0.5 mm 2 mps 706 mmHg 92%
    03:00 +7°C° 0.5 mm 2 mps 706 mmHg 93%
    04:00 +7°C° 0.5 mm 3 mps 706 mmHg 93%
    05:00 +7°C° 0.5 mm 3 mps 706 mmHg 93%
    06:00 +6°C° 0.5 mm 4 mps 707 mmHg 93%
    07:00 +6°C° 0.1 mm 4 mps 707 mmHg 88%
    08:00 +6°C° 0.1 mm 5 mps 708 mmHg 84%
    09:00 +6°C° 0.1 mm 5 mps 709 mmHg 80%
    10:00 +7°C° 0.1 mm 5 mps 709 mmHg 76%
    11:00 +7°C° 0.1 mm 5 mps 709 mmHg 73%
    12:00 +7°C° 0.1 mm 5 mps 709 mmHg 69%
    13:00 +7°C° 0 mm 5 mps 709 mmHg 68%
    14:00 +8°C° 0 mm 5 mps 709 mmHg 67%
    15:00 +8°C° 0 mm 5 mps 708 mmHg 66%
    16:00 +6°C° 0 mm 4 mps 709 mmHg 73%
    17:00 +5°C° 0 mm 3 mps 709 mmHg 80%
    18:00 +6°C° 0 mm 1 mps 709 mmHg 87%
    19:00 +5°C° 0 mm 1 mps 709 mmHg 88%
    20:00 +5°C° 0 mm 1 mps 709 mmHg 89%
    21:00 +5°C° 0 mm 1 mps 710 mmHg 90%
    22:00 +5°C° 0 mm 1 mps 709 mmHg 90%
    23:00 +4°C° 0 mm 1 mps 709 mmHg 89%
    Show more